Weather History for Gilze-Rijen, Netherlands

Change the Weather History Date:

Tuesday, March 12, 2013

  Actual Average Record
Temperature  
Mean Temperature 26 °F -  
Max Temperature 32 °F 52 °F 63 °F (2014)
Min Temperature 19 °F 37 °F 19 °F (2006)
Degree Days  
Heating Degree Days 38    
Moisture  
Dew Point 18 °F    
Average Humidity 67    
Maximum Humidity 80    
Minimum Humidity 51    
Precipitation  
Precipitation 0.00 in - - ()
Sea Level Pressure  
Sea Level Pressure 29.69 in    
Wind  
Wind Speed 16 mph ()    
Max Wind Speed 22 mph    
Max Gust Speed -    
Visibility 5.8 miles    
Events Snow    
Averages and records for this station are not official NWS values.
T = Trace of Precipitation, MM = Missing Value Source: Averaged Metar Reports

Daily Weather History Graph

Daily Weather History Graph

Search for Another Location

Airport:

Trip Planner

Search our weather history database for the weather conditions in past years. The results will help you decide how hot, cold, wet, or windy it might be!

Date:

Astronomy

Mar. 12, 2013 Rise Set
Actual Time 7:00 AM CET 6:39 PM CET
Civil Twilight 6:27 AM CET 7:13 PM CET
Nautical Twilight 5:48 AM CET 7:52 PM CET
Astronomical Twilight 5:09 AM CET 8:32 PM CET
Moon 6:50 AM CET (3/12) 7:51 PM CET (3/12)
Length of Visible Light 12h 45m
Length of Day
11h 38m
New Moon, 0% of the Moon is Illuminated
Mar 12
New Moon
Mar 19
First Quarter
Mar 27
Full
Apr 3
Last Quarter
Apr 10
New

Hourly Weather History & Observations

Time (CET) Temp. Windchill Dew Point Humidity Pressure Visibility Wind Dir Wind Speed Gust Speed Precip Events Conditions
1:25 AM 26.6 °F 13.1 °F 21.2 °F 80% 29.71 in 6.2 mi NE 19.6 mph - N/A   Overcast
1:55 AM 26.6 °F 13.8 °F 21.2 °F 80% 29.71 in 6.2 mi NE 17.3 mph - N/A   Overcast
2:25 AM 26.6 °F 14.3 °F 21.2 °F 80% 29.71 in - NE 16.1 mph - N/A Snow Light Snow
2:55 AM 26.6 °F 13.4 °F 21.2 °F 80% 29.71 in 1.7 mi NE 18.4 mph - N/A Snow Light Snow
3:25 AM 26.6 °F 13.8 °F 21.2 °F 80% 29.68 in - NE 17.3 mph - N/A Snow Light Snow
3:55 AM 26.6 °F 13.4 °F 21.2 °F 80% 29.68 in - NE 18.4 mph - N/A Snow Light Snow
4:25 AM 26.6 °F 13.8 °F 21.2 °F 80% 29.68 in 3.7 mi NE 17.3 mph - N/A Snow Light Snow Grains
4:55 AM 26.6 °F 13.1 °F 21.2 °F 80% 29.68 in 4.3 mi NE 19.6 mph - N/A Snow Light Snow
5:25 AM 26.6 °F 13.1 °F 19.4 °F 74% 29.68 in 6.2 mi NE 19.6 mph - N/A   Overcast
5:55 AM 26.6 °F 13.1 °F 19.4 °F 74% 29.68 in 6.2 mi NE 19.6 mph - N/A   Overcast
6:25 AM 26.6 °F 13.1 °F 19.4 °F 74% 29.68 in 6.2 mi NE 19.6 mph - N/A   Overcast
6:55 AM 26.6 °F 13.1 °F 19.4 °F 74% 29.68 in 3.7 mi NE 19.6 mph - N/A Snow Light Snow
7:25 AM 24.8 °F 10.7 °F 19.4 °F 80% 29.68 in 5.0 mi NE 19.6 mph - N/A Snow Light Snow
7:55 AM 26.6 °F 13.4 °F 19.4 °F 74% 29.68 in 6.2 mi NE 18.4 mph - N/A   Overcast
8:25 AM 26.6 °F 13.8 °F 19.4 °F 74% 29.68 in 6.2 mi NE 17.3 mph - N/A   Mostly Cloudy
8:55 AM 26.6 °F 13.1 °F 19.4 °F 74% 29.68 in 6.2 mi NE 19.6 mph - N/A   Mostly Cloudy
9:25 AM 26.6 °F 12.7 °F 19.4 °F 74% 29.68 in 6.2 mi NE 20.7 mph - N/A   Overcast
9:55 AM 26.6 °F 13.4 °F 19.4 °F 74% 29.71 in 6.2 mi NE 18.4 mph - N/A   Mostly Cloudy
10:25 AM 26.6 °F 12.4 °F 17.6 °F 69% 29.68 in 6.2 mi NE 21.9 mph - N/A   Mostly Cloudy
10:55 AM 28.4 °F 15.8 °F 17.6 °F 64% 29.71 in 6.2 mi NE 18.4 mph - N/A   Scattered Clouds
11:02 AM 28.4 °F 15.8 °F 17.6 °F 64% 29.71 in 1.4 mi NE 18.4 mph - N/A   Haze
11:07 AM 28.4 °F 15.8 °F 17.6 °F 64% 29.71 in 6.2 mi NE 18.4 mph - N/A   Mostly Cloudy
11:20 AM 28.4 °F 15.8 °F 17.6 °F 64% 29.71 in 6.2 mi NE 18.4 mph - N/A   Mostly Cloudy
11:25 AM 28.4 °F 15.4 °F 17.6 °F 64% 29.71 in 6.2 mi NE 19.6 mph - N/A   Mostly Cloudy
11:33 AM 28.4 °F 15.8 °F 17.6 °F 64% 29.71 in - NE 18.4 mph - N/A   Haze
11:34 AM 28.4 °F 15.8 °F 17.6 °F 64% 29.71 in 6.2 mi NE 18.4 mph - N/A   Mostly Cloudy
11:47 AM 28.4 °F 15.4 °F 17.6 °F 64% 29.71 in 6.2 mi NE 19.6 mph - N/A   Mostly Cloudy
11:55 AM 28.4 °F 15.1 °F 17.6 °F 64% 29.71 in 6.2 mi NE 20.7 mph - N/A   Mostly Cloudy
12:25 PM 30.2 °F 17.4 °F 17.6 °F 60% 29.71 in 6.2 mi NE 20.7 mph - N/A   Scattered Clouds
12:55 PM 30.2 °F 17.4 °F 17.6 °F 60% 29.68 in 6.2 mi ENE 20.7 mph - N/A   Overcast
1:16 PM 30.2 °F 17.4 °F 17.6 °F 60% 29.68 in 3.1 mi ENE 20.7 mph - N/A   Haze
1:25 PM 30.2 °F 17.4 °F 17.6 °F 60% 29.68 in 6.2 mi ENE 20.7 mph - N/A   Overcast
1:36 PM 32.0 °F 20.1 °F 17.6 °F 55% 29.68 in 6.2 mi ENE 19.6 mph - N/A   Partly Cloudy
1:55 PM 32.0 °F 19.5 °F 17.6 °F 55% 29.68 in 6.2 mi NE 21.9 mph - N/A   Mostly Cloudy
2:25 PM 32.0 °F 20.8 °F 17.6 °F 55% 29.68 in 6.2 mi NE 17.3 mph - N/A   Overcast
2:55 PM 32.0 °F 19.5 °F 17.6 °F 55% 29.68 in 6.2 mi NE 21.9 mph - N/A   Overcast
3:25 PM 32.0 °F 19.8 °F 17.6 °F 55% 29.68 in 6.2 mi NE 20.7 mph - N/A   Mostly Cloudy
3:55 PM 32.0 °F 20.1 °F 17.6 °F 55% 29.68 in 6.2 mi NE 19.6 mph - N/A   Mostly Cloudy
4:25 PM 32.0 °F 20.5 °F 17.6 °F 55% 29.68 in 6.2 mi NNE 18.4 mph - N/A   Overcast
4:55 PM 32.0 °F 20.1 °F 17.6 °F 55% 29.68 in 6.2 mi NE 19.6 mph - N/A   Partly Cloudy
5:25 PM 30.2 °F 19.3 °F 15.8 °F 55% 29.68 in 6.2 mi NE 15.0 mph - N/A   Unknown
5:40 PM 30.2 °F 20.8 °F 17.6 °F 60% 29.68 in 6.2 mi NE 11.5 mph - N/A   Partly Cloudy
5:55 PM 30.2 °F 19.3 °F 17.6 °F 60% 29.68 in 6.2 mi NE 15.0 mph - N/A   Mostly Cloudy
6:25 PM 30.2 °F 18.5 °F 14.0 °F 51% 29.68 in 6.2 mi NE 17.3 mph - N/A   Mostly Cloudy
6:55 PM 28.4 °F 18.0 °F 12.2 °F 51% 29.71 in 6.2 mi NE 12.7 mph - N/A   Scattered Clouds
7:25 PM 28.4 °F 19.7 °F 14.0 °F 55% 29.71 in 6.2 mi NE 9.2 mph - N/A   Unknown
7:55 PM 26.6 °F 18.2 °F 14.0 °F 59% 29.71 in 6.2 mi NE 8.1 mph - N/A   Unknown
8:25 PM 24.8 °F 17.9 °F 14.0 °F 64% 29.71 in 6.2 mi NE 5.8 mph - N/A   Unknown
8:55 PM 24.8 °F 19.1 °F 14.0 °F 64% 29.71 in 6.2 mi NNE 4.6 mph - N/A   Unknown
9:25 PM 24.8 °F 20.5 °F 15.8 °F 69% 29.71 in 6.2 mi NNE 3.5 mph - N/A   Unknown
9:55 PM 23.0 °F 18.4 °F 14.0 °F 68% 29.71 in 6.2 mi North 3.5 mph - N/A   Unknown
10:25 PM 21.2 °F - 14.0 °F 74% 29.71 in 6.2 mi North 2.3 mph - N/A   Unknown
10:55 PM 23.0 °F 18.4 °F 14.0 °F 68% 29.71 in 6.2 mi North 3.5 mph - N/A   Unknown
10:57 PM 23.0 °F 18.4 °F 14.0 °F 68% 29.71 in 6.2 mi North 3.5 mph - N/A   Unknown
11:25 PM 21.2 °F - 14.0 °F 74% 29.71 in 6.2 mi NNE 1.2 mph - N/A   Unknown
11:55 PM 19.4 °F - 12.2 °F 74% 29.71 in 6.2 mi North 2.3 mph - N/A   Unknown